NUTSAT (55124 NORAD) Tracking and Keplerian Element Data

This shows tracking and keplerian element data for the satellite.

Feedback or suggestion? Click here.




ElementValue
Catalog55124
NameNUTSAT
Epoch Orbit236
Epoch Day13.29292538
Epoch Year2023
RAAN15.6189
Inclination51.6419
Eccentricity0.000168
Argument of Perigee323.4718
Mean Anonmoly36.6157
Mean Motion15.5279732
Decay Rate0.00113659
L11 55124U 98067UR 23013.29292538 .00113659 00000+0 17837-2 0 9998
L22 55124 51.6419 15.6189 0001680 323.4718 36.6157 15.52797320 2368



Live tracking and technical data element details for NUTSAT (NORAD 55124). NUTSAT can be tracked NOW for your location showing map with azimuth and elevation plus other details from your city location.







IsCatalogInMostPopularTable: catalog: 55124, numindb: 3
Update: records affected: 1



GetName: 55124 NUTSAT

Hit Count: updated at: Tue, 07 Feb 2023 16:03:27 GMT